STARLETTE 1 07646U 75010A 08129.45536610 -.00000065 00000-0 60354-4 0 6133 2 07646 49.8263 288.2423 0205961 175.9454 184.3164 13.82270149679707 LAGEOS 1 1 08820U 76039A 08129.13190326 .00000008 00000-0 10000-3 0 6021 2 08820 109.8561 73.6821 0044715 277.9782 81.5660 6.38664802491171 EGP 1 16908U 86061A 08129.43934325 -.00000083 00000-0 10000-3 0 5967 2 16908 50.0117 323.4679 0011131 265.5207 94.4357 12.44459989657205 LAGEOS 2 1 22195U 92070B 08128.84855496 -.00000009 00000-0 10000-3 0 8156 2 22195 52.6374 127.0243 0137718 175.1477 185.0445 6.47294543367429 STELLA 1 22824U 93061B 08129.39715297 .00000056 00000-0 40133-4 0 9738 2 22824 98.4238 85.2194 0007351 56.2857 303.9029 14.27280370761444 WESTPAC 1 25398U 98043E 08129.79118751 -.00000034 00000-0 32171-5 0 2327 2 25398 98.3666 166.0743 0001070 7.8272 352.2930 14.22670313510513 GRACE 1 1 27391U 02012A 08129.80754135 .00000541 00000-0 15472-4 0 8880 2 27391 89.0105 57.1327 0013423 233.4075 126.5941 15.33822707343320 GRACE 2 1 27392U 02012B 08129.80717056 .00000554 00000-0 15856-4 0 8893 2 27392 89.0102 57.1437 0014288 236.0796 123.9088 15.33821778343329